Location: Home
(51.5204°N, 2.5456°W)
Time: 23:53:50
(UTC+00:00)

N. Korean satellite - Pass Details

Date: 18 October 2019
Orbit: 456 x 506 km, 97.2° (Epoch: 22 November)

Event Time Altitude Azimuth Distance (km) Brightness Sun altitude
Rises 18:50:33 0° 193° (SSW) 2,465 10.4 -6.8°
Reaches altitude 10° 18:52:47 10° 206° (SSW) 1,599 9.7 -7.2°
Maximum altitude 18:55:43 26° 265° (W) 940 9.1 -7.6°
Drops below altitude 10° 18:58:42 10° 324° (NW) 1,622 9.7 -8.1°
Sets 19:01:00 0° 338° (NNW) 2,510 10.4 -8.5°
